Weather observations for the past three days for
Elkins, Elkins-Randolph County-Jennings Randolph Field
Metric (Imperial)
Date Time (edt) Wind (kph) Vis. (km) Weather Sky Cond. Temperature (ºC) Relative Humidity Wind Chill (°C) Heat Index (°C) Pressure Precipitation (cm)
Air Dwpt 6 hour altimeter (cm) sea level (mb) 1 hr 3 hr 6 hr
Max. Min.
21 10:51 Calm 16.09 Fair CLR 25 17.2 62% 26 76.33 1016.9
21 09:51 Calm 16.09 Fair CLR 21.7 16.1 71% 76.38 1017.4
21 08:51 Calm 16.09 Fair CLR 18.3 15.6 84% 76.38 1017.7
21 07:51 Calm 16.09 Fair CLR 15 14.4 15 11.1 96% 76.35 1017.3
21 06:51 Calm 16.09 Fair CLR 12.2 12.2 100% 76.33 1016.9
21 05:51 Calm 12.87 A Few Clouds FEW002 11.1 11.1 100% 76.3 1016.5
21 04:51 Calm 16.09 Fair CLR 11.7 11.7 100% 76.28 1016.1
21 03:51 Calm 16.09 Fair CLR 12.2 12.2 100% 76.28 1016.2
21 02:51 Calm 14.48 Fair CLR 12.8 12.8 100% 76.28 1016.2
21 01:51 Calm 16.09 Fair CLR 13.3 13.3 25.6 13.3 100% 76.3 1016.4
21 00:51 Calm 16.09 Fair CLR 14.4 13.9 97% 76.33 1016.7
20 23:51 Calm 16.09 Fair CLR 15 13.9 93% 76.33 1016.7
20 22:51 Calm 16.09 Fair CLR 16.1 15 93% 76.33 1016.7
20 21:51 Calm 16.09 Fair CLR 18.3 15 81% 76.28 1016.0
20 20:51 Calm 16.09 Fair CLR 21.1 14.4 66% 76.23 1015.6
20 19:51 Calm 16.09 Fair CLR 25 15 28.9 25 54% 26 76.23 1015.6
20 18:51 NW 11 16.09 Fair CLR 27.2 14.4 45% 27 76.2 1015.2
20 17:51 N 9 16.09 Mostly Cloudy SCT065 BKN085 26.7 13.9 45% 27 76.2 1015.2
20 16:51 Vrbl 6 16.09 Partly Cloudy FEW070 SCT085 28.3 13.3 40% 28 76.2 1015.2
20 15:51 Vrbl 7 16.09 Fair CLR 28.9 13.9 40% 28 76.23 1015.4
20 14:51 N 7 16.09 Fair CLR 27.8 13.9 43% 28 76.28 1016.1
20 13:51 W 11 16.09 Fair CLR 26.7 13.9 27.2 12.8 45% 27 76.33 1016.8
20 12:51 N 15 16.09 Fair CLR 26.1 14.4 49% 27 76.33 1017.0
20 11:51 Calm 16.09 Fair CLR 25 13.3 48% 26 76.38 1017.5
20 10:51 Calm 16.09 Fair CLR 23.3 14.4 57% 76.4 1017.9
20 09:51 Calm 16.09 Fair CLR 20 15 73% 76.45 1018.6
20 08:51 Calm 16.09 Fair CLR 16.7 14.4 86% 76.45 1018.9
20 07:51 Calm 16.09 Fair CLR 12.8 12.2 12.8 8.9 96% 76.45 1018.9
20 06:51 Calm 0.40 Fog VV001 9.4 9.4 100% 76.4 1018.1
20 05:51 Calm 0.80 Fog VV001 9.4 9.4 100% 76.3 1016.9
20 04:51 Calm 11.27 Mostly Cloudy BKN002 10 10 100% 76.28 1016.3
20 03:51 Calm 4.83 Fog/Mist FEW001 10.6 10.6 100% 76.28 1016.4
20 02:51 Calm 16.09 Fair CLR 11.1 10.6 97% 76.33 1017.1
20 01:51 Calm 14.48 Fair CLR 11.7 11.7 23.9 11.7 100% 76.38 1017.5
20 00:51 Calm 16.09 Fair CLR 12.2 12.2 100% 76.38 1017.8
19 23:51 Calm 16.09 Fair CLR 13.3 12.2 93% 76.35 1017.4
19 22:51 Calm 16.09 Fair CLR 14.4 12.8 90% 76.35 1017.6
19 21:51 Calm 16.09 Fair CLR 16.1 13.3 84% 76.3 1017.3
19 20:51 Calm 16.09 Mostly Cloudy BKN075 18.9 12.8 68% 76.25 1016.3
19 19:51 NW 6 16.09 Fair CLR 23.9 11.1 27.2 23.9 45% 25 76.23 1015.4
19 18:51 NW 13 16.09 Fair CLR 25.6 11.7 42% 26 76.17 1014.8
19 17:51 NW 17 G 26 16.09 A Few Clouds FEW065 26.1 13.3 45% 26 76.17 1014.8
19 16:51 W 20 16.09 Partly Cloudy FEW060 SCT080 26.7 13.9 45% 27 76.17 1014.7
19 15:51 NW 11 16.09 Mostly Cloudy BKN065 26.7 13.9 45% 27 76.17 1014.9
19 14:51 W 13 16.09 A Few Clouds FEW065 26.1 12.8 44% 26 76.2 1015.2
19 13:51 W 7 16.09 Fair CLR 25.6 11.7 25.6 13.3 42% 26 76.23 1015.4
19 12:51 W 9 16.09 A Few Clouds FEW050 25 14.4 52% 26 76.25 1015.8
19 11:51 N 7 16.09 Fair CLR 24.4 15.6 58% 26 76.28 1016.2
19 10:51 Calm 16.09 Fair CLR 20.6 16.1 76% 76.3 1016.6
19 09:51 Calm 16.09 Overcast OVC004 15 15 100% 76.3 1017.4
19 08:51 Calm 3.22 Fog/Mist OVC003 13.9 13.9 100% 76.33 1017.7
19 07:51 Calm 0.80 Fog OVC002 13.3 13.3 13.9 12.8 100% 76.33 1017.1
19 06:51 Calm 0.40 Fog VV002 12.8 12.8 100% 76.28 1016.6
19 05:51 Calm 0.80 Fog VV002 12.8 12.8 100% 76.23 1015.6
19 04:51 Calm 0.80 Fog VV002 13.3 13.3 100% 76.2 1015.3
19 03:51 Calm 0.80 Fog VV002 13.3 13.3 100% 76.17 1014.8
19 02:51 Calm 0.40 Fog VV002 13.3 13.3 100% 76.17 1014.8
19 01:51 Calm 0.40 Fog VV002 13.3 13.3 20 12.2 100% 76.15 1014.8
19 00:51 Calm 2.41 Fog/Mist BKN002 12.2 12.2 100% 76.15 1014.7
18 23:51 Calm 6.44 Fog/Mist SCT002 13.3 13.3 100% 76.12 1014.6
18 22:51 Calm 14.48 Fair CLR 14.4 14.4 100% 76.12 1014.6
18 21:51 Calm 16.09 Fair CLR 15 15 100% 76.1 1014.1
18 20:51 Calm 16.09 A Few Clouds FEW043 17.2 16.7 97% 76.05 1013.5
18 19:51 Calm 16.09 Overcast SCT042 BKN050 OVC060 20.6 16.1 25.6 20 76% 76 1012.6 0.03
18 18:51 Calm 16.09 Mostly Cloudy SCT050 SCT060 BKN095 20.6 17.8 84% 75.97 1012.2 0.03
18 17:51 NE 9 16.09 Mostly Cloudy BKN041 24.4 16.1 60% 26 75.95 1011.8
18 16:51 NW 11 16.09 Partly Cloudy SCT095 22.2 16.1 68% 75.97 1012.2
18 15:51 W 9 16.09 Mostly Cloudy BKN046 24.4 15.6 58% 26 76 1012.3
18 14:51 Vrbl 6 16.09 Overcast SCT040 BKN046 OVC055 23.3 15.6 62% 76.02 1012.9
18 13:51 NW 6 16.09 Mostly Cloudy SCT031 BKN080 22.8 15.6 23.3 16.7 64% 76.07 1013.3
18 12:51 Vrbl 6 16.09 A Few Clouds FEW070 21.7 16.7 73% 76.1 1013.8
18 11:51 N 7 16.09 Overcast OVC050 19.4 16.7 84% 76.12 1014.2
Date Time (edt) Wind (kph) Vis. (km) Weather Sky Cond. Air Dwpt Max. Min. Relative Humidity Wind Chill (°C) Heat Index (°C) altimeter (cm) sea level (mb) 1 hr 3 hr 6 hr
6 hour
Temperature (ºC) Pressure Precipitation (cm)